Weather History for Ortonville, MN

Change the Weather History Date:

Wednesday, October 24, 2012

  Actual Average (KAQP) Record (KAQP)
Temperature  
Mean Temperature 44 °F -  
Max Temperature 53 °F 51 °F 69 °F (2000)
Min Temperature 35 °F 32 °F 21 °F (2005)
Degree Days  
Heating Degree Days 21    
Moisture  
Dew Point 38 °F    
Average Humidity 79    
Maximum Humidity 93    
Minimum Humidity 62    
Precipitation  
Precipitation 0.00 in - - ()
Sea Level Pressure  
Sea Level Pressure 29.90 in    
Wind  
Wind Speed 12 mph (NNW)    
Max Wind Speed 23 mph    
Max Gust Speed 31 mph    
Visibility 10 miles    
Events Rain    
Averages and records for this station are not official NWS values.
T = Trace of Precipitation, MM = Missing Value Source: NWS Daily Summary

Daily Weather History Graph

Daily Weather History Graph

Search for Another Location

Airport:

Trip Planner

Search our weather history database for the weather conditions in past years. The results will help you decide how hot, cold, wet, or windy it might be!

Date:

Astronomy

Oct. 24, 2012 Rise Set
Actual Time 7:54 AM CDT 6:24 PM CDT
Civil Twilight 7:24 AM CDT 6:54 PM CDT
Nautical Twilight 6:49 AM CDT 7:29 PM CDT
Astronomical Twilight 6:15 AM CDT 8:03 PM CDT
Moon 3:52 PM CDT (10/24) 2:37 AM CDT (10/24)
Length of Visible Light 11h 30m
Length of Day
10h 29m
Waxing Gibbous, 76% of the Moon is Illuminated
Oct 24
Waxing Gibbous
Oct 29
Full
Nov 6
Last Quarter
Nov 13
New
Nov 20
First Quarter

Hourly Weather History & Observations

Time (CDT) Temp. Windchill Dew Point Humidity Pressure Visibility Wind Dir Wind Speed Gust Speed Precip Events Conditions
12:14 AM 53.6 °F - 50.0 °F 88% 29.80 in 7.0 mi NNW 8.1 mph - N/A   Overcast
12:34 AM 53.6 °F - 50.0 °F 88% 29.81 in 7.0 mi NNW 10.4 mph - N/A   Overcast
1:14 AM 51.8 °F - 46.4 °F 82% 29.84 in 10.0 mi NNW 11.5 mph 23.0 mph N/A   Overcast
1:34 AM 51.8 °F - 44.6 °F 76% 29.85 in 10.0 mi NW 10.4 mph 18.4 mph N/A   Overcast
1:54 AM 50.0 °F - 44.6 °F 82% 29.86 in 10.0 mi NW 9.2 mph 16.1 mph N/A   Overcast
2:14 AM 48.2 °F - 42.8 °F 82% 29.86 in 10.0 mi NNW 9.2 mph - N/A   Scattered Clouds
2:34 AM 46.4 °F 42.4 °F 42.8 °F 87% 29.86 in 10.0 mi NNW 8.1 mph - N/A   Clear
2:53 AM 46.4 °F 41.5 °F 42.8 °F 87% 29.86 in 10.0 mi NNW 10.4 mph - N/A   Clear
3:14 AM 46.4 °F 42.4 °F 42.8 °F 87% 29.85 in 10.0 mi North 8.1 mph - N/A   Clear
3:34 AM 46.4 °F 43.5 °F 42.8 °F 87% 29.85 in 10.0 mi NNW 5.8 mph - N/A   Clear
3:54 AM 44.6 °F 41.4 °F 42.8 °F 93% 29.85 in 10.0 mi NNW 5.8 mph - N/A   Clear
4:14 AM 44.6 °F 42.2 °F 42.8 °F 93% 29.86 in 10.0 mi NW 4.6 mph - N/A   Mostly Cloudy
4:33 AM 46.4 °F 43.5 °F 42.8 °F 87% 29.86 in 10.0 mi WNW 5.8 mph - N/A   Overcast
4:54 AM 46.4 °F 42.9 °F 42.8 °F 87% 29.87 in 10.0 mi NW 6.9 mph - N/A   Overcast
5:14 AM 46.4 °F 42.4 °F 42.8 °F 87% 29.88 in 10.0 mi NW 8.1 mph - N/A   Overcast
5:33 AM 46.4 °F 42.4 °F 42.8 °F 87% 29.89 in 10.0 mi NW 8.1 mph - N/A   Overcast
5:54 AM 46.4 °F 41.9 °F 42.8 °F 87% 29.90 in 10.0 mi NW 9.2 mph - N/A   Overcast
6:14 AM 46.4 °F 41.5 °F 41.0 °F 81% 29.90 in 10.0 mi NNW 10.4 mph - N/A   Overcast
6:33 AM 44.6 °F 39.2 °F 39.2 °F 81% 29.91 in 10.0 mi NNW 10.4 mph - N/A   Overcast
6:54 AM 44.6 °F 39.7 °F 39.2 °F 81% 29.92 in 10.0 mi NNW 9.2 mph - N/A   Overcast
7:14 AM 44.6 °F 39.2 °F 39.2 °F 81% 29.93 in 10.0 mi NNW 10.4 mph - N/A   Mostly Cloudy
7:33 AM 42.8 °F 37.5 °F 37.4 °F 81% 29.92 in 10.0 mi NNW 9.2 mph - N/A   Scattered Clouds
7:54 AM 42.8 °F 37.0 °F 37.4 °F 81% 29.93 in 10.0 mi NNW 10.4 mph - N/A   Clear
8:14 AM 41.0 °F 34.7 °F 35.6 °F 81% 29.92 in 10.0 mi NNW 10.4 mph - N/A   Clear
8:34 AM 41.0 °F 34.3 °F 37.4 °F 87% 29.91 in 10.0 mi North 11.5 mph - N/A   Clear
8:54 AM 42.8 °F 37.0 °F 37.4 °F 81% 29.90 in 10.0 mi North 10.4 mph - N/A   Clear
9:14 AM 42.8 °F 36.6 °F 37.4 °F 81% 29.90 in 10.0 mi NNW 11.5 mph - N/A   Clear
9:34 AM 42.8 °F 36.2 °F 37.4 °F 81% 29.90 in 10.0 mi NNW 12.7 mph 18.4 mph N/A   Clear
9:53 AM 42.8 °F 37.0 °F 37.4 °F 81% 29.90 in 10.0 mi NNW 10.4 mph 17.3 mph N/A   Clear
10:14 AM 44.6 °F 38.1 °F 37.4 °F 76% 29.90 in 10.0 mi North 13.8 mph - N/A   Clear
10:34 AM 46.4 °F 40.1 °F 37.4 °F 71% 29.91 in 10.0 mi North 15.0 mph 21.9 mph N/A   Clear
10:53 AM 44.6 °F 39.2 °F 37.4 °F 76% 29.92 in 10.0 mi NNW 10.4 mph 20.7 mph N/A   Clear
11:14 AM 46.4 °F 39.8 °F 37.4 °F 71% 29.93 in 10.0 mi North 16.1 mph - N/A   Scattered Clouds
11:34 AM 46.4 °F 40.1 °F 35.6 °F 66% 29.93 in 10.0 mi North 15.0 mph - N/A   Scattered Clouds
11:53 AM 46.4 °F 41.1 °F 35.6 °F 66% 29.94 in 10.0 mi North 11.5 mph - N/A   Scattered Clouds
12:14 PM 46.4 °F 40.7 °F 35.6 °F 66% 29.94 in 10.0 mi North 12.7 mph - N/A   Mostly Cloudy
12:34 PM 46.4 °F 41.5 °F 35.6 °F 66% 29.94 in 10.0 mi North 10.4 mph 16.1 mph N/A   Mostly Cloudy
12:53 PM 46.4 °F 40.7 °F 35.6 °F 66% 29.93 in 10.0 mi North 12.7 mph - N/A   Scattered Clouds
1:14 PM 48.2 °F - 35.6 °F 62% 29.92 in 10.0 mi NNW 15.0 mph - N/A   Mostly Cloudy
1:34 PM 48.2 °F - 37.4 °F 66% 29.91 in 10.0 mi North 17.3 mph 20.7 mph N/A   Mostly Cloudy
1:54 PM 48.2 °F - 35.6 °F 62% 29.90 in 10.0 mi NNW 17.3 mph 21.9 mph N/A   Scattered Clouds
2:14 PM 46.4 °F 39.5 °F 35.6 °F 66% 29.91 in 10.0 mi NNW 17.3 mph 25.3 mph N/A   Mostly Cloudy
2:34 PM 46.4 °F 39.2 °F 35.6 °F 66% 29.91 in 10.0 mi NNW 18.4 mph - N/A   Overcast
2:54 PM 46.4 °F 39.2 °F 35.6 °F 66% 29.89 in 10.0 mi North 18.4 mph - N/A   Mostly Cloudy
3:14 PM 46.4 °F 39.2 °F 35.6 °F 66% 29.89 in 10.0 mi North 18.4 mph - N/A   Mostly Cloudy
3:34 PM 44.6 °F 37.4 °F 35.6 °F 71% 29.89 in 10.0 mi North 16.1 mph 24.2 mph N/A   Mostly Cloudy
4:13 PM 44.6 °F 36.9 °F 35.6 °F 71% 29.90 in 10.0 mi North 18.4 mph 21.9 mph N/A   Mostly Cloudy
4:34 PM 42.8 °F 35.1 °F 35.6 °F 76% 29.90 in 10.0 mi North 16.1 mph - N/A   Scattered Clouds
4:54 PM 42.8 °F 34.5 °F 35.6 °F 76% 29.89 in 10.0 mi North 18.4 mph 21.9 mph N/A   Clear
5:13 PM 41.0 °F 31.9 °F 33.8 °F 76% 29.89 in 10.0 mi North 19.6 mph - N/A   Clear
5:34 PM 41.0 °F 32.5 °F 33.8 °F 76% 29.89 in 10.0 mi North 17.3 mph 23.0 mph N/A   Clear
5:54 PM 39.2 °F 29.8 °F 33.8 °F 81% 29.89 in 10.0 mi North 18.4 mph 23.0 mph N/A   Clear
6:14 PM 39.2 °F 30.8 °F 33.8 °F 81% 29.89 in 10.0 mi North 15.0 mph 20.7 mph N/A   Scattered Clouds
6:34 PM 39.2 °F 29.6 °F 33.8 °F 81% 29.89 in 10.0 mi North 19.6 mph 24.2 mph N/A   Mostly Cloudy
6:53 PM 39.2 °F 29.8 °F 33.8 °F 81% 29.90 in 10.0 mi North 18.4 mph - N/A   Overcast
7:14 PM 39.2 °F 29.6 °F 33.8 °F 81% 29.91 in 10.0 mi NNW 19.6 mph - N/A   Overcast
7:54 PM 39.2 °F 30.2 °F 33.8 °F 81% 29.94 in 10.0 mi NNW 17.3 mph - N/A   Overcast
8:14 PM 39.2 °F 29.6 °F 33.8 °F 81% 29.93 in 10.0 mi North 19.6 mph - N/A   Overcast
8:33 PM 39.2 °F 28.7 °F 33.8 °F 81% 29.93 in 10.0 mi North 23.0 mph 29.9 mph N/A   Overcast
8:54 PM 39.2 °F 30.5 °F 33.8 °F 81% 29.95 in 10.0 mi NNW 16.1 mph 24.2 mph N/A   Overcast
9:14 PM 39.2 °F 31.2 °F 33.8 °F 81% 29.95 in 10.0 mi NNW 13.8 mph 24.2 mph N/A   Overcast
9:34 PM 39.2 °F 29.6 °F 33.8 °F 81% 29.96 in 10.0 mi NNW 19.6 mph 28.8 mph N/A   Overcast
9:54 PM 37.4 °F 27.2 °F 33.8 °F 87% 29.95 in 10.0 mi North 19.6 mph 31.1 mph N/A   Overcast
10:14 PM 37.4 °F 27.8 °F 33.8 °F 87% 29.95 in 10.0 mi North 17.3 mph - N/A   Overcast
10:34 PM 37.4 °F 26.9 °F 33.8 °F 87% 29.94 in 10.0 mi NNW 20.7 mph 24.2 mph N/A   Overcast
10:54 PM 37.4 °F 28.5 °F 33.8 °F 87% 29.95 in 10.0 mi NNW 15.0 mph 26.5 mph N/A   Overcast
11:13 PM 35.6 °F 25.2 °F 32.0 °F 87% 29.95 in 10.0 mi North 18.4 mph 24.2 mph N/A   Overcast
11:34 PM 35.6 °F 25.9 °F 32.0 °F 87% 29.95 in 7.0 mi NNW 16.1 mph 23.0 mph N/A Rain Light Rain
11:54 PM 35.6 °F 26.2 °F 32.0 °F 87% 29.95 in 7.0 mi NNW 15.0 mph - N/A Rain Light Rain